Voltar ao catálogo

NAVSTAR 69

USA 248

AtivoNavegaçãoHEO
NORAD 39533·PAYLOAD·🇺🇸 United States

Lançado Feb 21, 2014 de Cape Canaveral Space Force Station

Loading…

Próximas Passagens (próximas 24 horas)

TLE

AtualizadoSource: CelesTrak SupGP

Época: Sep 17, 2026, 16:38 UTC

1 39533C 14008A   26260.69312500  .00000000  00000+0  00000+0 0  2607
2 39533  53.6641 145.5449 0083598 231.5102 323.6870  2.00566107    16

Acompanhe NAVSTAR 69 em tempo real com AllMySat

Download on the App Store